FW2285 Weather Reports


Display with metric or nautical units.
time (UTC)temp
F
wind
direction
speed
MPH
gust
MPH
rain 1hr
in
rain 24hr
in
rain mn
in
humidity
%
barometer
mb
20260903230048 95 194 1.0 4.0 0.00 0.00 0.00 32 1010.0
20260903224602 95 126 0.0 5.0 0.00 0.00 0.00 32 1010.1
20260903223042 96 119 1.0 7.0 0.00 0.00 0.00 30 1010.0
20260903221541 96 138 0.0 6.0 0.00 0.00 0.00 32 1010.1
20260903220045 96 156 2.0 7.0 0.00 0.00 0.00 32 1010.2
20260903214545 96 138 2.0 9.0 0.00 0.00 0.00 32 1010.3
20260903213040 96 114 1.0 6.0 0.00 0.00 0.00 32 1010.5
20260903211540 96 119 2.0 7.0 0.00 0.00 0.00 31 1010.4
20260903210046 96 126 0.0 5.0 0.00 0.00 0.00 34 1010.8
20260903204542 96 104 1.0 5.0 0.00 0.00 0.00 31 1010.8
20260903203033 96 100 1.0 4.0 0.00 0.00 0.00 35 1011.1
20260903201538 96 124 1.0 4.0 0.00 0.00 0.00 34 1011.0
20260903200032 96 138 1.0 8.0 0.00 0.00 0.00 36 1011.2
20260903194530 96 128 1.0 8.0 0.00 0.00 0.00 33 1011.3
20260903193028 96 202 0.0 4.0 0.00 0.00 0.00 35 1011.3
20260903191533 95 90 2.0 8.0 0.00 0.00 0.00 32 1011.5
20260903190024 95 91 1.0 7.0 0.00 0.00 0.00 33 1011.5
20260903184521 94 169 2.0 10.0 0.00 0.00 0.00 34 1011.7
20260903183019 95 112 1.0 4.0 0.00 0.00 0.00 35 1012.0
20260903181517 94 132 2.0 6.0 0.00 0.00 0.00 34 1012.2
20260903180015 93 119 2.0 8.0 0.00 0.00 0.00 37 1012.3
20260903174514 93 174 1.0 4.0 0.00 0.00 0.00 40 1012.4
20260903173013 93 225 1.0 7.0 0.00 0.00 0.00 37 1012.7
20260903171510 92 178 1.0 6.0 0.00 0.00 0.00 40 1012.8
20260903170115 91 183 2.0 7.0 0.00 0.00 0.00 41 1012.8
20260903164507 91 227 1.0 5.0 0.00 0.00 0.00 42 1013.0
20260903163004 90 195 1.0 8.0 0.00 0.00 0.00 43 1013.2
20260903161502 90 192 3.0 8.0 0.00 0.00 0.00 42 1013.0
20260903160128 89 116 0.0 4.0 0.00 0.00 0.00 45 1013.2
20260903154608 88 98 1.0 4.0 0.00 0.00 0.00 44 1013.4
20260903153055 88 130 2.0 6.0 0.00 0.00 0.00 44 1013.5
20260903151552 87 208 0.0 5.0 0.00 0.00 0.00 47 1013.5
20260903150049 86 100 2.0 8.0 0.00 0.00 0.00 47 1013.5
20260903144544 85 233 1.0 5.0 0.00 0.00 0.00 48 1013.5
20260903143055 84 142 1.0 7.0 0.00 0.00 0.00 50 1013.5
20260903141550 82 88 1.0 5.0 0.00 0.00 0.00 53 1013.5
20260903140034 80 172 1.0 4.0 0.00 0.00 0.00 54 1013.5
20260903134530 79 105 1.0 7.0 0.00 0.00 0.00 56 1013.7
20260903133031 79 126 1.0 4.0 0.00 0.00 0.00 58 1013.5
20260903131528 79 109 0.0 3.0 0.00 0.00 0.00 59 1013.5
20260903130024 78 138 0.0 2.0 0.00 0.00 0.00 57 1013.5
20260903124522 77 154 0.0 2.0 0.00 0.00 0.00 58 1013.4
20260903123031 76 104 0.0 2.0 0.00 0.00 0.00 59 1013.2
20260903121521 76 120 0.0 2.0 0.00 0.00 0.00 60 1013.1
20260903120121 75 122 0.0 0.0 0.00 0.00 0.00 60 1013.1
20260903114519 75 122 0.0 2.0 0.00 0.00 0.00 59 1012.9
20260903113017 75 120 0.0 0.0 0.00 0.00 0.00 59 1012.7
20260903111520 75 120 0.0 0.0 0.00 0.00 0.00 60 1012.7
20260903110017 75 120 0.0 0.0 0.00 0.00 0.00 60 1012.7
20260903104513 74 120 0.0 0.0 0.00 0.00 0.00 61 1012.5
20260903103012 73 119 0.0 0.0 0.00 0.00 0.00 62 1012.3
20260903101515 73 119 0.0 0.0 0.00 0.00 0.00 61 1012.3
20260903100012 74 119 0.0 0.0 0.00 0.00 0.00 61 1012.1
20260903094511 74 119 0.0 0.0 0.00 0.00 0.00 61 1012.0
20260903093013 74 119 0.0 0.0 0.00 0.00 0.00 61 1012.1
20260903091513 74 119 0.0 0.0 0.00 0.00 0.00 61 1012.1
20260903090008 74 119 0.0 0.0 0.00 0.00 0.00 61 1012.3
20260903084507 74 119 0.0 0.0 0.00 0.00 0.00 61 1012.4
20260903083006 74 119 0.0 0.0 0.00 0.00 0.00 61 1012.1
20260903081511 74 119 0.0 0.0 0.00 0.00 0.00 61 1012.0
20260903080105 74 119 0.0 0.0 0.00 0.00 0.00 61 1012.1
20260903074503 75 119 0.0 0.0 0.00 0.00 0.00 61 1012.2
20260903073059 75 119 0.0 0.0 0.00 0.00 0.00 60 1012.2
20260903071607 75 119 0.0 0.0 0.00 0.00 0.00 60 1012.2
20260903064556 76 119 0.0 0.0 0.00 0.00 0.00 61 1012.3
20260903063119 76 119 0.0 0.0 0.00 0.00 0.00 60 1012.2
20260903061554 76 119 0.0 0.0 0.00 0.00 0.00 59 1012.4
20260903060054 76 119 0.0 0.0 0.00 0.00 0.00 58 1012.4
20260903054550 77 119 0.0 0.0 0.00 0.00 0.00 58 1012.3
20260903053048 77 119 0.0 0.0 0.00 0.00 0.00 58 1012.2
20260903051548 78 119 0.0 0.0 0.00 0.00 0.00 57 1012.3
20260903050105 78 119 0.0 0.0 0.00 0.00 0.00 56 1012.2
20260903044543 79 119 0.0 0.0 0.00 0.00 0.00 55 1012.3
20260903043044 79 119 0.0 0.0 0.00 0.00 0.00 54 1012.2
20260903041542 80 119 0.0 0.0 0.00 0.00 0.00 53 1012.2
20260903040048 80 119 0.0 0.0 0.00 0.00 0.00 52 1012.4
20260903034541 81 119 0.0 0.0 0.00 0.00 0.00 51 1012.3
20260903033041 81 119 0.0 0.0 0.00 0.00 0.00 50 1012.3
20260903031541 82 119 0.0 0.0 0.00 0.00 0.00 49 1012.4
20260903030040 83 119 0.0 0.0 0.00 0.00 0.00 48 1012.3
20260903024539 83 119 0.0 0.0 0.00 0.00 0.00 47 1012.3
20260903023042 84 119 0.0 0.0 0.00 0.00 0.00 45 1012.1
20260903021539 85 119 0.0 0.0 0.00 0.00 0.00 44 1011.9
20260903020044 86 119 0.0 0.0 0.00 0.00 0.00 43 1011.8
20260903014545 87 119 0.0 0.0 0.00 0.00 0.00 41 1011.7
20260903013038 88 119 0.0 0.0 0.00 0.00 0.00 40 1011.5
20260903011554 90 119 0.0 0.0 0.00 0.00 0.00 38 1011.3
20260903010037 91 119 0.0 0.0 0.00 0.00 0.00 35 1011.2
20260903004539 91 119 0.0 1.0 0.00 0.00 0.00 35 1011.2
20260903003036 92 119 0.0 1.0 0.00 0.00 0.00 35 1011.1
20260903001536 94 119 0.0 3.0 0.00 0.00 0.00 31 1011.1
20260903000036 94 115 1.0 4.0 0.00 0.00 0.00 30 1011.2
20260902234539 95 148 2.0 4.0 0.00 0.00 0.00 29 1011.2
20260902233033 95 138 1.0 4.0 0.00 0.00 0.00 30 1011.3
20260902231547 96 112 1.0 4.0 0.00 0.00 0.00 28 1011.4